Weather History for Moab, UT

Change the Weather History Date:

Tuesday, March 25, 2014

  Actual Average Record
Temperature  
Mean Temperature 50 °F 47 °F  
Max Temperature 71 °F 61 °F 80 °F (1990)
Min Temperature 29 °F 32 °F 21 °F (1933)
Degree Days  
Heating Degree Days 15 18  
Month to date heating degree days 464 534  
Since 1 July heating degree days 5212 4943  
Cooling Degree Days 0 0  
Month to date cooling degree days 0 0  
Year to date cooling degree days 0 0  
Moisture  
Dew Point 8 °F    
Average Humidity 25    
Maximum Humidity 42    
Minimum Humidity 8    
Precipitation  
Precipitation 0.00 in 0.03 in 0.40 in (1931)
Month to date precipitation 0.31 0.61  
Year to date precipitation 0.64 1.77  
Sea Level Pressure  
Sea Level Pressure 29.91 in    
Wind  
Wind Speed 3 mph (SSE)    
Max Wind Speed 12 mph    
Max Gust Speed 18 mph    
Visibility 10 miles    
Events      
T = Trace of Precipitation, MM = Missing Value Source: NWS Daily Summary

Daily Weather History Graph

Daily Weather History Graph

Search for Another Location

Airport:

Trip Planner

Search our weather history database for the weather conditions in past years. The results will help you decide how hot, cold, wet, or windy it might be!

Date:

Astronomy

Mar. 25, 2014 Rise Set
Actual Time 7:14 AM MDT 7:35 PM MDT
Civil Twilight 6:47 AM MDT 8:02 PM MDT
Nautical Twilight 6:16 AM MDT 8:33 PM MDT
Astronomical Twilight 5:44 AM MDT 9:05 PM MDT
Moon 3:35 AM MDT (3/25) 2:13 PM MDT (3/25)
Length of Visible Light 13h 14m
Length of Day
12h 21m
Waning Crescent, 31% of the Moon is Illuminated
Mar 25
Waning Crescent
Mar 30
New
Apr 7
First Quarter
Apr 15
Full
Apr 22
Last Quarter

Hourly Weather History & Observations

Time (MDT) Temp. Windchill Dew Point Humidity Pressure Visibility Wind Dir Wind Speed Gust Speed Precip Events Conditions
12:53 AM 45.0 °F 40.6 °F 8.1 °F 22% 30.07 in 10.0 mi West 8.1 mph - N/A   Clear
1:53 AM 36.0 °F 33.3 °F 8.1 °F 31% 30.09 in 10.0 mi South 3.5 mph - N/A   Clear
2:53 AM 36.0 °F - 6.1 °F 29% 30.08 in 10.0 mi Calm Calm - N/A   Clear
3:53 AM 33.1 °F - 7.0 °F 34% 30.08 in 10.0 mi Calm Calm - N/A   Clear
4:53 AM 34.0 °F 31.0 °F 8.1 °F 34% 30.06 in 10.0 mi SW 3.5 mph - N/A   Clear
5:53 AM 28.9 °F 23.9 °F 8.1 °F 41% 30.09 in 10.0 mi WSW 4.6 mph - N/A   Clear
6:53 AM 35.1 °F - 9.0 °F 34% 30.07 in 10.0 mi Calm Calm - N/A   Clear
7:53 AM 36.0 °F - 10.0 °F 34% 30.09 in 10.0 mi Calm Calm - N/A   Clear
8:53 AM 45.0 °F 41.8 °F 12.9 °F 27% 30.06 in 10.0 mi SE 5.8 mph - N/A   Clear
9:53 AM 50.0 °F - 12.9 °F 23% 30.06 in 10.0 mi SSE 8.1 mph - N/A   Clear
10:53 AM 55.0 °F - 10.9 °F 17% 30.04 in 10.0 mi ESE 5.8 mph - N/A   Clear
11:53 AM 59.0 °F - 10.0 °F 14% 30.00 in 10.0 mi East 3.5 mph - N/A   Clear
12:53 PM 61.0 °F - 10.0 °F 13% 29.96 in 10.0 mi Variable 3.5 mph - N/A   Clear
1:53 PM 64.0 °F - 10.0 °F 12% 29.92 in 10.0 mi ESE 8.1 mph - N/A   Clear
2:53 PM 66.0 °F - 10.0 °F 11% 29.87 in 10.0 mi Variable 4.6 mph - N/A   Clear
3:53 PM 68.0 °F - 10.0 °F 11% 29.82 in 10.0 mi North 5.8 mph - N/A   Clear
4:53 PM 70.0 °F - 10.0 °F 10% 29.77 in 10.0 mi North - - N/A   Clear
5:53 PM 70.0 °F - 5.0 °F 8% 29.75 in 10.0 mi SW 6.9 mph - N/A   Clear
6:53 PM 68.0 °F - 5.0 °F 8% 29.70 in 10.0 mi SE 6.9 mph - N/A   Clear
7:53 PM 61.0 °F - 7.0 °F 12% 29.69 in 10.0 mi SSW 3.5 mph - N/A   Clear
8:53 PM 53.1 °F - 6.1 °F 15% 29.69 in 10.0 mi Calm Calm - N/A   Clear
9:53 PM 53.1 °F - 5.0 °F 14% 29.66 in 10.0 mi Calm Calm - N/A   Clear
10:53 PM 46.9 °F - 6.1 °F 19% 29.66 in 10.0 mi East 4.6 mph - N/A   Clear
11:53 PM 48.0 °F - 6.1 °F 18% 29.62 in 10.0 mi Calm Calm - N/A   Clear